Weather in Priirtyshye

Russia / Omsk Oblast     54°31′52″N   74°05′52″E
temp.,
°C
wind,
m/s
gust,
m/s
humid.,
%
clouds,
%
prec.,
mm/h
press.,
hPa
HPBL,
m
29 may, sun
sun2900:00+17ssw61240100 0.0 1014402
03:00+16ssw51158100 0.0 1014351
06:00+13ssw49735 0.0 1014257
09:00+17wnw585794 0.3 1014616
12:00+22w67370 0.3 10141861
15:00+24w79329 0.0 10142278
18:00+24w7103343 0.0 10132231
21:00+21wsw494388 0.0 1013217
30 may, mon
mon3000:00+20wnw6126010 0.1 1014738
03:00+16w411800 0.0 1014297
06:00+15w612720 0.0 1015638
09:00+18wnw8124544 0.0 10161194
12:00+22wnw911325 0.0 10161850
15:00+24wnw811285 0.0 10142156
18:00+23wnw81032100 0.0 10141741
21:00+17n3353100 0.0 101433
31 may, tue
tue3100:00+18sse2349100 0.0 101279
03:00+16sw51068100 0.1 1010336
06:00+16sw51082100 0.3 1008707
09:00+17wnw9116329 0.1 10081140
12:00+19w71045100 0.1 10071924
15:00+18wnw10124398 0.0 10061758
18:00+15wnw11165795 0.1 10061842
21:00+14w9147035 0.1 10051154
1 june, wed
wed100:00+11nw91673100 0.2 10061247
03:00+11wnw71273100 0.1 1006833
06:00+10wnw7127848 0.1 1007533
09:00+14nw710505 0.0 1008844
12:00+17nw8933100 0.0 10082202
15:00+18nw81030100 0.0 10082462
18:00+15nnw71145100 0.0 10091820
21:00+12w51058100 0.2 1009293
2 june, thu
thu200:00+9wnw612815 1.0 1009513
03:00+7wnw5128780 0.0 1010335
06:00+7nw5118269 0.0 1011567
09:00+8nnw8105516 0.0 10121382
12:00+9nnw8105298 0.1 10141726
15:00+9nnw81052100 0.1 10161727
18:00+8nnw8951100 0.1 10181751
21:00+7nnw5956100 0.0 10201353